星链-6304 (STARLINK-6304 )

导读

STARLINK-6304是美国太空探索技术公司Starlink星座的一颗卫星,于2023年5月31日发射,属于星链互联网星座组网卫星,旨在为全球提供高速低延迟互联网服务,尤其覆盖偏远、网络基础设施薄弱区域。它运行在近地轨道,依靠星间链路实现网络互联,推进了星链星座的部署进程,拓展了全球卫星互联网覆盖范围。

基本信息
目录编号:
56778
目录名称:
STARLINK-6304
国际标识:
2023-078M
轨道中心:
EARTH
卫星名称:
星链-6304
卫星全名:
星链-6304 (STARLINK-6304 )
卫星状态:
在轨 (已飞行1110 天)
发射日期:
2023-05-31 UTC
国别 :
美国 (US)
星等 :
--
轨道信息
数据来源 国际轨道数据
星历时间: 2026-06-14T12:25:45+0800
16小时前
查看轨道信息
半长轴: 6950.145km
偏心率: 0.0003228
轨道倾角: 70.000°
近地点辐角 268.171°
升交点赤经 81.316°
平近点角 91.908°
近地点: 569.764km
远地点: 574.252km
周期: 96.106分钟
每日圈数: 14.983455
详细信息
固有亮度:
5
最大亮度:
2.5
卫星平台:
Starlink v1.5
覆盖范围:
全球
运营商:
太空探索技术公司
运营商所在国:
美国
制造商(研发单位):
太空探索技术公司
制造商所在国:
美国
使用方式:
暂无
卫星简介
星链(Starlink)计划是由太空探索技术公司(SpaceX)提出的一个巨型低轨卫星互联网星座项目,计划在2019年至2024年间在太空搭建由约1.2万颗卫星组成的“星链”网络,其中1584颗将部署在地球上空550千米处的近地轨道,并从2020年开始工作。该卫星仍在工作。
2D轨道图
3D轨道图
轨道高度分析图
轨道倾角分析图
轨道综合分析图
查看轨道综合分析图